Location: Gwatt
(46.7204°N, 7.6223°E)
Time: 15:22:37
(UTC+00:00)

Transit 2A Rocket - Visible Passes

Search period start: 25 January 2021 00:00
Search period end: 04 February 2021 00:00
Orbit: 592 x 910 km, 66.7° (Epoch: 25 January)

Date Brightness Start Highest point End Pass type
(mag) Time Alt. Az. Time Alt. Az. Time Alt. Az.
25 Jan 6.7 18:56:31 10° NNW 18:57:43 16° N 18:57:43 16° N visible
26 Jan 6.3 18:14:15 10° N 18:16:32 18° NNE 18:16:32 18° NNE visible
26 Jan 7.5 19:56:11 10° NW 19:56:26 11° NW 19:56:26 11° NW visible
27 Jan 6.4 17:32:11 10° N 17:34:32 14° NNE 17:35:24 13° NE visible
27 Jan 6.4 19:13:34 10° NNW 19:15:20 23° NNW 19:15:20 23° NNW visible
28 Jan 5.4 18:31:06 10° NNW 18:34:18 34° NNE 18:34:18 34° NNE visible
28 Jan 7.7 20:14:01 10° WNW 20:14:14 11° WNW 20:14:14 11° WNW visible
29 Jan 5.6 17:48:45 10° NNW 17:52:27 25° NE 17:53:23 23° ENE visible
29 Jan 6.4 19:31:01 10° NW 19:33:19 28° WNW 19:33:19 28° WNW visible
30 Jan 6.1 17:06:32 10° N 17:09:32 17° NE 17:12:26 10° ENE visible
30 Jan 4.4 18:48:17 10° NW 18:52:34 82° W 18:52:34 82° W visible
31 Jan 4.5 18:05:43 10° NNW 18:10:03 56° NE 18:12:02 29° ESE visible
31 Jan 7.1 19:49:16 10° WNW 19:52:00 17° WSW 19:52:00 17° WSW visible
01 Feb 5.2 17:23:18 10° NNW 17:27:20 33° NE 17:31:14 10° ESE visible
01 Feb 6.2 19:05:57 10° NW 19:09:47 31° WSW 19:11:47 21° SSW visible
02 Feb 5.1 18:23:03 10° NW 18:27:20 56° WSW 18:31:32 10° SSE visible
03 Feb 4.4 17:40:24 10° NNW 17:44:47 80° NE 17:49:05 10° SE visible
03 Feb 7.6 19:25:07 10° W 19:26:36 12° WSW 19:28:06 10° SW visible
